Lahontan Reservoir Weather Center

Moon Phase Calendar



Lahontan Reservoir Water Level
Online Cameras

 


      

Current Conditions in Silver Springs
5/8/2021 3:40:14 AM

46°F
Feels Like 42
Clear
Humidity
29%
Pressure
29.97"
Wind
6.4 mph (NNW)
Dew Point
17°F
UV Index
0/10 (Low)
Visibility
6 mi

Hourly Forecast

Date & Time Sat, May 8
3:00 AM
Sat, May 8
4:00 AM
Sat, May 8
5:00 AM
Sat, May 8
6:00 AM
Sat, May 8
7:00 AM
Sat, May 8
8:00 AM
Sat, May 8
9:00 AM
Sat, May 8
10:00 AM
Sat, May 8
11:00 AM
Sat, May 8
12:00 PM
Sat, May 8
1:00 PM
Sat, May 8
2:00 PM
Sat, May 8
3:00 PM
Sat, May 8
4:00 PM
Sat, May 8
5:00 PM
Sat, May 8
6:00 PM
Sat, May 8
7:00 PM
Sat, May 8
8:00 PM
Sat, May 8
9:00 PM
Sat, May 8
10:00 PM
Sat, May 8
11:00 PM
Sun, May 9
12:00 AM
Sun, May 9
1:00 AM
Sun, May 9
2:00 AM
Sun, May 9
3:00 AM
Sun, May 9
4:00 AM
Sun, May 9
5:00 AM
Sun, May 9
6:00 AM
Sun, May 9
7:00 AM
Sun, May 9
8:00 AM
Sun, May 9
9:00 AM
Sun, May 9
10:00 AM
Sun, May 9
11:00 AM
Sun, May 9
12:00 PM
Sun, May 9
1:00 PM
Sun, May 9
2:00 PM
Sun, May 9
3:00 PM
Sun, May 9
4:00 PM
Sun, May 9
5:00 PM
Sun, May 9
6:00 PM
Sun, May 9
7:00 PM
Sun, May 9
8:00 PM
Sun, May 9
9:00 PM
Sun, May 9
10:00 PM
Sun, May 9
11:00 PM
Mon, May 10
12:00 AM
Mon, May 10
1:00 AM
Mon, May 10
2:00 AM
Condition
Clear

Clear

Clear

Clear

Clear

Clear

Clear

Clear

Clear

Clear

Clear

Clouds

Clouds

Clouds

Clouds

Clear

Clear

Clear

Clear

Clear

Clear

Clouds

Clouds

Clouds

Clouds

Clouds

Clouds

Clouds

Clouds

Clouds

Clouds

Clouds

Clouds

Clouds

Clouds

Clouds

Clouds

Clouds

Clouds

Clouds

Clouds

Clouds

Clouds

Clouds

Clouds

Clear

Clear

Clear
Temperature 47°F46°F46°F46°F48°F50°F53°F55°F57°F59°F62°F63°F65°F66°F67°F67°F66°F63°F62°F60°F58°F57°F56°F55°F54°F53°F52°F51°F54°F56°F58°F60°F61°F63°F65°F67°F68°F68°F67°F67°F66°F63°F59°F57°F55°F54°F53°F52°F
Feels Like 43°F42°F43°F43°F45°F47°F49°F51°F53°F56°F58°F60°F62°F63°F64°F64°F63°F60°F58°F56°F55°F53°F52°F51°F50°F50°F49°F48°F50°F53°F54°F56°F58°F60°F62°F64°F65°F65°F65°F64°F63°F60°F56°F53°F52°F50°F49°F48°F
Cloudiness 9%9%9%5%4%2%0%0%0%9%10%28%24%22%24%2%1%1%1%1%5%14%12%16%14%13%14%23%29%26%24%26%24%70%64%70%74%79%77%60%55%51%53%48%41%0%0%0%
Visibility 6 mi6 mi6 mi6 mi6 mi6 mi6 mi6 mi6 mi6 mi6 mi6 mi6 mi6 mi6 mi6 mi6 mi6 mi6 mi6 mi6 mi6 mi6 mi6 mi6 mi6 mi6 mi6 mi6 mi6 mi6 mi6 mi6 mi6 mi6 mi6 mi6 mi6 mi6 mi6 mi6 mi6 mi6 mi6 mi6 mi6 mi6 mi6 mi
Precipitation 0%0%0%0%0%0%0%0%0%0%0%0%0%0%0%0%0%0%0%0%0%0%0%0%0%0%0%0%0%0%0%0%0%0%0%0%0%0%0%2%0%0%0%0%0%0%0%0%
Humidity 27%29%28%29%27%26%24%21%18%15%12%11%11%10%10%10%11%13%15%16%18%20%20%21%23%24%29%34%33%30%27%25%24%22%22%21%21%21%20%19%19%20%24%27%28%30%32%34%
Dew Point 16°F17°F17°F18°F17°F18°F17°F16°F14°F11°F10°F9°F9°F9°F9°F9°F10°F12°F13°F14°F15°F16°F16°F16°F16°F17°F20°F23°F25°F25°F24°F24°F24°F24°F25°F26°F26°F26°F25°F23°F22°F21°F23°F23°F22°F23°F23°F23°F
Pressure 30"29.97"30"30.03"30.09"30.12"30.15"30.15"30.12"30.09"30.06"30.03"30"29.97"29.94"29.94"29.94"29.94"29.94"29.97"29.94"29.94"29.94"29.91"29.91"29.91"29.91"29.91"29.91"29.91"29.91"29.88"29.88"29.85"29.83"29.8"29.77"29.77"29.77"29.77"29.77"29.8"29.85"29.88"29.88"29.91"29.91"29.91"
Wind Speed 7.5 mph6.4 mph6.6 mph6.5 mph6.8 mph7.2 mph7.2 mph6.7 mph6.3 mph6.1 mph6.2 mph6.2 mph6.2 mph7 mph8 mph10.1 mph11.4 mph9.1 mph5.7 mph4.3 mph3.8 mph3.9 mph4 mph4.1 mph4.5 mph5.2 mph5.7 mph5.2 mph4.7 mph7.8 mph9.3 mph10.7 mph9.2 mph10.3 mph10.4 mph11.7 mph15.5 mph17.3 mph15.9 mph14.1 mph13.4 mph15.4 mph20.1 mph17 mph11.8 mph7.4 mph6.5 mph5.1 mph
Wind
Direction
341°
NNW
343°
NNW
350°
N
354°
N
356°
N

N
13°
NNE
21°
NNE
20°
NNE
27°
NNE
31°
NNE
35°
NE
36°
NE
28°
NNE
23°
NNE
21°
NNE
16°
NNE
20°
NNE
27°
NNE
53°
NE
56°
NE
32°
NNE

N
352°
N
339°
NNW
341°
NNW
338°
NNW
339°
NNW
341°
NNW
358°
N

N
10°
N
10°
N
11°
N
12°
NNE

N
360°
N
350°
N
349°
N
353°
N

N
26°
NNE
31°
NNE
27°
NNE
21°
NNE
24°
NNE
24°
NNE
22°
NNE

Daily Forecast

Date High Low Precip. Humidity
Today
May 8

Clear
67 °F
46 °F
0%
15%
Sunday
May 9

Clouds
68 °F
51 °F
0%
22%
Monday
May 10

Clear
65 °F
48 °F
0%
27%
Tuesday
May 11

Clear
71 °F
49 °F
0%
17%
Wednesday
May 12

Clear
81 °F
55 °F
0%
13%
Thursday
May 13

Clouds
85 °F
60 °F
0%
13%
Friday
May 14

Clear
83 °F
59 °F
0%
12%
Saturday
May 15

Clear
65 °F
48 °F
0%
16%
Sunday
May 16

Clouds
68 °F
46 °F
0%
28%
Monday
May 17

Clouds
69 °F
52 °F
0%
21%
Tuesday
May 18

Clear
63 °F
44 °F
0%
23%
Wednesday
May 19

Clear
78 °F
48 °F
0%
15%
Thursday
May 20

Clouds
76 °F
62 °F
1%
17%
Friday
May 21

Clouds
69 °F
52 °F
0%
26%
Saturday
May 22

Clear
75 °F
52 °F
0%
19%
Sunday
May 23

Clear
81 °F
54 °F
0%
10%

Temperature 8-14 Day Outlook



Precipitation 8-14 Day Outlook




Quick Links
Lahontan Reservoir News
Lahontan Reservoir Photos
Lahontan Reservoir Videos




About Us
Contact Us
Site Map
Search Site
Advertise With Us
   
Lahontan.LakesOnline.com
THE LAHONTAN RESERVOIR WEBSITE

Copyright 2021, Lakes Online
Privacy    |    Legal